Regional Weather Roundup
Issued by NWS

Home | Current Version | Previous Version | Graphics & Text | Print | Product List | Glossary On
Versions: 1 2 3 4 5 6 7 8 9 10 11 12 13 14 15 16 17 18 19 20 21 22 23 24 25 26 27 28 29 30 31 32 33 34 35 36 37 38 39 40 41 42 43 44 45 46 47 48 49 50
000
ASUS43 KMKX 210811
RWRWI

WISCONSIN REGIONAL WEATHER ROUNDUP
NATIONAL WEATHER SERVICE MILWAUKEE/SULLIVAN WI
300 AM CDT MON APR 21 2014

NOTE: "FAIR" INDICATES FEW OR NO CLOUDS BELOW 12,000 FEET WITH NO
SIGNIFICANT WEATHER AND/OR OBSTRUCTIONS TO VISIBILITY.

WIZ001-002-006>008-014>016-023>028-210900-
NORTHWEST WISCONSIN

CITY           SKY/WX    TMP DP  RH WIND       PRES   REMARKS
SUPERIOR ARPT  PTCLDY    31  30  96 CALM      29.91F
ASHLAND        PTCLDY    32  31  96 SW3       29.94F
HAYWARD        PTCLDY    34  30  85 CALM      29.94F
SIREN          MOCLDY    47  35  61 SE5       29.92F
RICE LAKE      CLOUDY    50  49  93 CALM      29.97F FOG
LADYSMITH      CLOUDY    48  47  97 CALM      29.97F FOG
EAU CLAIRE     CLOUDY    54  52  93 NE5       29.94F
MENOMONIE      RAIN      53  51  95 SE5       29.94F
NEW RICHMOND   CLOUDY    54  53  97 NE10      29.92F
OSCEOLA        CLOUDY    51  45  78 SE8       29.94F
$$

WIZ003>005-009-010-017-018-210900-
NORTH CENTRAL WISCONSIN

CITY           SKY/WX    TMP DP  RH WIND       PRES   REMARKS
WOODRUFF       MOCLDY    37  30  78 CALM      29.96F
RHINELANDER    FOG       40  40 100 CALM      29.97F VSB 1/4
EAGLE RIVER    MOCLDY    34  34 100 CALM      29.96S
LAND O LAKES   MOCLDY    30  29  95 CALM      29.97S
PHILLIPS       FOG       41  41 100 CALM      29.96F VSB 1/4
TOMAHAWK       FOG       40  39  97 CALM      29.96F VSB 1/4
MEDFORD        FOG       48  48 100 CALM      29.96S VSB 1/4
MERRILL        CLOUDY    48  48 100 NE3G48    29.96S FOG
$$

WIZ029-030-035-036-043>047-210900-
CENTRAL WISCONSIN

CITY           SKY/WX    TMP DP  RH WIND       PRES   REMARKS
WAUSAU         CLOUDY    51  51 100 CALM      29.94F FOG
MOSINEE        CLOUDY    50  50 100 CALM      29.96F FOG
MARSHFIELD     CLOUDY    53  51  93 N5        29.95S FOG
STEVENS POINT  CLOUDY    50  50  99 CALM      29.96S FOG
WAUPACA        LGT RAIN  54  52  94 NW5       29.95F
WAUTOMA        LGT RAIN  52  52 100 CALM      29.95S FOG
WISC RAPIDS    CLOUDY    52  51  97 CALM      29.96F FOG
CAMP DOUGLAS   LGT RAIN  52  52 100 N7        29.95F FOG
$$

WIZ011>013-019>022-031-037>040-048>050-210900-
NORTHEAST WISCONSIN

CITY           SKY/WX    TMP DP  RH WIND       PRES   REMARKS
ANTIGO         CLOUDY    47  47  99 CALM      29.95F FOG
STURGEON BAY   CLOUDY    46  43  87 SE6       29.95F
GREEN BAY      CLOUDY    49  48  97 E5        29.95R FOG
MANITOWOC      CLOUDY    44  40  85 CALM      29.94F
APPLETON       CLOUDY    50  46  87 CALM      29.94F
CLINTONVILLE   CLOUDY    50  50 100 CALM      29.95F FOG
OSHKOSH        CLOUDY    50  47  89 NW3       29.94F FOG
$$

WIZ032>034-041-042-053>061-210900-
SOUTHWEST WISCONSIN

CITY           SKY/WX    TMP DP  RH WIND       PRES   REMARKS
LA CROSSE      CLOUDY    54  53  97 SE6       29.93F FOG
SPARTA         FOG       53  53  99 CALM      29.96F VSB 1/2
VIROQUA        CLOUDY    55  55 100 W3        29.96F
BOSCOBEL       CLOUDY    56  54  93 S3        29.95F FOG
PRAIRIE DU CHI CLOUDY    56  55  94 CALM      29.94F
PLATTEVILLE    FAIR      59  50  71 W3        29.97F
$$

WIZ056-057-062-063-064-067-068-210900-
SOUTH CENTRAL WISCONSIN

CITY           SKY/WX    TMP DP  RH WIND       PRES   REMARKS
BARABOO/DELLS  CLOUDY    53  51  92 S3        29.94S FOG
LONE ROCK      CLOUDY    55  54  96 CALM      29.95S FOG
WATERTOWN      CLOUDY    60  47  62 S7        29.94F
MADISON        CLOUDY    56  52  86 CALM      29.95F
MIDDLETON      FAIR      60  50  71 CALM      29.94F
MONROE         CLOUDY    61  48  62 SW5       29.95F
JANESVILLE     LGT RAIN  59  50  72 SW7       29.97F
$$

WIZ051-052-058>065-066-070>072-210900-
SOUTHEAST WISCONSIN

CITY           SKY/WX    TMP DP  RH WIND       PRES   REMARKS
MILWAUKEE      CLOUDY    63  42  46 SW14      29.96F
WAUKESHA       MOCLDY    61  43  51 SW9       29.98R
MILWAUKEE/TIMM CLOUDY    61  39  44 SW10      29.96S
RACINE         CLOUDY    63  42  46 SW9       29.99F
BURLINGTON     CLOUDY    59  45  58 SW9       29.98S
KENOSHA        CLOUDY    61  43  51 SW8       29.98F
FOND DU LAC    CLOUDY    51  46  83 CALM      29.94S
SHEBOYGAN      MOCLDY    46  39  76 CALM      29.93F
WEST BEND      CLOUDY    61  41  48 SW7       29.95S
JUNEAU         LGT RAIN  58  43  57 S9        29.95F
$$

LSZ147-162-210900-
LAKE SUPERIOR

STATION/POSITION TIME  TEMP    WIND        PRES    WAVE
                       AIR SEA DIR/SP/G            HT/PER
                 (UTC) (F)     (DEG/KT/KT) (MB)    (FT/S)
DEVILS ISLAND    0800   42     320/  5/  5 1014.1F
PORT WING        0740          200/  3/  4 1013.9F
SAXON HARBOR     0700             CALM     1014.2F
$$

LMZ867-665-643>646-210900-
LAKE MICHIGAN

STATION/POSITION TIME  TEMP    WIND        PRES    WAVE
                       AIR SEA DIR/SP/G            HT/PER
                 (UTC) (F)     (DEG/KT/KT) (MB)    (FT/S)
NORTHPORT PIER   0700   38     160/  3/  6 1014.6F
SISTER BAY       0709   42     150/  2/  5   N/A
KEWAUNEE LAKESHO 0700   42      20/  6/  8 1015.4F
SHEBOYGAN LAKESH 0800   44     330/  2/  3 1014.3F
PORT WASHINGTON  0700   44        CALM     1014.9F
MILWAUKEE LAKESH 0700   53     150/  2/  4   N/A
KENOSHA   LAKESH 0600   47     180/  9/ 11   N/A
$$

TC  - TEMPERATURE IN CELSIUS
VSB - VISIBILITY IN STATUTE MILES
WCI - WIND CHILL INDEX
HX  - HEAT INDEX




USA.gov is the U.S. government's official web portal to all federal, state and local government web resources and services.